Tracking 28794 objects as of 19-Apr-2024
HD Live streaming from Space Station
objects crossing your sky now

ASIASAT 3S

Track ASIASAT 3S now!
ASIASAT 3S is classified as:


NORAD ID: 25657
Int'l Code: 1999-013A
Perigee: 36,165.2 km
Apogee: 36,215.5 km
Inclination: 8.0 °
Period: 1,456.4 minutes
Semi major axis: 42561 km
RCS: 25.1486 m2 (large)
Launch date: March 21, 1999
Source: Asia Satellite Telecommunications Company (ASIASAT) (AC)
Launch site: TYURATAM MISSILE AND SPACE COMPLEX (TTMTR)

28 C-band, 16 Ku-band; broadcasting, internet services, multimedia, telecommunications
Your satellite tracking list
Your tracking list is empty




NASA's NSSDC Master Catalog

Two Line Element Set (TLE):
1 25657U 99013A   24109.54126370 -.00000007  00000-0  00000-0 0  9999
2 25657   7.9748  62.2311 0005911 357.6249  17.5283  0.98873495 91783
Source of the keplerian elements: AFSPC